"Pseudo-MPEC" for SO0009y

Created 2026 Aug 6 22:35:14 UT using Find_Orb

Click here for an explanation of pseudo-MPECs

 
 Astrometry: 
     SO0009y*0B2026 08 06.42569320 58 12.576-13 01 02.86   ~86HZ 19.13VVNEOCPE54
     SO0009y 0B2026 08 06.42726520 58 21.739-13 00 23.08   ~86HZ 17.08VVNEOCPE54
     SO0009y 0B2026 08 06.43027920 58 39.120-12 59 07.62   ~86HZ 18.09VVNEOCPE54
     SO0009y 0B2026 08 06.43172420 58 47.520-12 58 29.86   ~86HZ 18.72VVNEOCPE54
     SO0009y 0B2026 08 06.74648521 28 38.100-10 31 55.45   ~86IZ 18.58VVNEOCPE54
     SO0009y 0B2026 08 06.74797921 28 46.680-10 31 10.34   ~86IZ 17.38VVNEOCPE54
     SO0009y 0B2026 08 06.74949521 28 55.363-10 30 25.20   ~86IZ 18.78VVNEOCPE54
     SO0009y 0B2026 08 06.75087621 29 03.384-10 29 43.48   ~86IZ 18.7 VVNEOCPE54
     SO0009y 0B2026 08 06.75443921 29 23.885-10 27 55.98   ~86IZ 19.36VVNEOCPE54
     SO0009y 0B2026 08 06.75597521 29 32.717-10 27 09.83   ~86J5 18.74VVNEOCPE54
     SO0009y 0B2026 08 06.75752021 29 41.676-10 26 22.96   ~86J5 17.49VVNEOCPE54
     SO0009y 0B2026 08 06.76284421 30 12.377-10 23 43.48   ~86J5 18.17VVNEOCPE54
     SO0009y KB2026 08 06.89245721 44 27.902-09 42 09.97   ~86MZ 19.0 GXNEOCP595
     SO0009y KB2026 08 06.89558021 44 45.521-09 40 37.42   ~86MZ 19.3 GXNEOCP595
     SO0009y KB2026 08 06.89869721 45 03.106-09 39 05.44   ~86MZ 18.9 GXNEOCP595

Station data:
(595) Farra d'Isonzo  (N45.915731 E13.525780)  Italy.  Observers S. Aschi, E.
   Pettarin, G. Panterotto. Measurers S. Aschi, E. Pettarin. 0.40-m f/5.15
   reflector + CCD.
(E54) TransAstra at Springbrook  (S31.281736 E149.081470)  Australia/NSW.

Orbital elements:  SO0009y
   Perihelion 2026 Aug 10.900494 +/- 0.00952 TT = 21:36:42.7 (JD 2461263.400494)
Epoch 2026 Aug  7.0 TT = JDT 2461259.5   Earth MOID: 0.0073   Ma: 0.0016
M 358.497063307 +/- 0.0035          (J2000 ecliptic)             AutoNEOCP
n   0.385319548 +/- 0.000112        Peri.  114.550713 +/- 0.42
a   1.870346283 +/- 0.000363        Node   204.208498 +/- 0.41
e   0.45414185 +/- 0.000106         Incl.    0.034745 +/- 0.00009
P   2.558/934.272d         H 28.46  G  0.15   U  6.6
q 1.020943751 +/- 4.78e-6    Q 2.719748814 +/- 0.000727
From 15 observations 2026 Aug. 6 (11.4 hr); mean residual 0".42
Residuals in arcseconds: 
260806 E54  .05-  .10+    260806 E54  .04-  .48+    260806 E54  .39+  .20+    
260806 E54  .67+  .14+    260806 E54  .67-  .03-    260806 E54  .00   1.2-    
260806 E54  .54-  .71-    260806 E54  .37+  .08+    260806 595  .72+  .28+    
260806 E54  .06-  .41+    260806 E54  .01-  .16+    260806 595  .07-  .16+    
260806 E54  .19+  .34+    260806 E54  .34-  .04-    260806 595  .61-  .43-    

Ephemerides (geocentric):
Date (UTC) HH   RA             Dec           delta  r     elong  mag " sig PA
---- --------  ------------   ------------  ------ ------ -----  --- --------
2026 08 06 23  21 50 24.872   -08 54 21.34  .00796 1.0219 166.8 18.8 .478  82
2026 08 07 00  21 54 28.292   -08 33 19.85  .00798 1.0219 165.8 18.8 .729  79
2026 08 07 01  21 58 30.121   -08 12 14.91  .00800 1.0219 164.8 18.9 1.01  77
2026 08 07 02  22 02 30.226   -07 51 07.85  .00802 1.0219 163.9 18.9 1.32  76
2026 08 07 03  22 06 28.483   -07 30 00.04  .00805 1.0219 162.9 18.9 1.67  76
2026 08 07 04  22 10 24.771   -07 08 52.77  .00808 1.0218 161.9 19.0 2.04  75
2026 08 07 05  22 14 18.978   -06 47 47.32  .00811 1.0218 161.0 19.0 2.44  74
2026 08 07 06  22 18 10.998   -06 26 44.95  .00814 1.0218 160.0 19.1 2.86  74
2026 08 07 07  22 22 00.731   -06 05 46.87  .00818 1.0218 159.0 19.1 3.31  74
2026 08 07 08  22 25 48.086   -05 44 54.22  .00821 1.0218 158.1 19.1 3.78  73
2026 08 07 09  22 29 32.978   -05 24 08.13  .00825 1.0217 157.1 19.2 4.27  73
2026 08 07 10  22 33 15.328   -05 03 29.67  .00830 1.0217 156.2 19.2 4.78  73
2026 08 07 11  22 36 55.066   -04 42 59.82  .00834 1.0217 155.3 19.3 5.31  72
2026 08 07 12  22 40 32.127   -04 22 39.55  .00839 1.0217 154.4 19.3 5.86  72
2026 08 07 13  22 44 06.456   -04 02 29.75  .00844 1.0217 153.5 19.3 6.42  72
2026 08 07 14  22 47 38.000   -03 42 31.25  .00849 1.0217 152.6 19.4 6.99  72
2026 08 07 15  22 51 06.716   -03 22 44.82  .00855 1.0216 151.7 19.4 7.58  72
2026 08 07 16  22 54 32.567   -03 03 11.17  .00861 1.0216 150.9 19.5 8.17  72
2026 08 07 17  22 57 55.522   -02 43 50.96  .00867 1.0216 150.0 19.5 8.77  71
2026 08 07 18  23 01 15.554   -02 24 44.77  .00873 1.0216 149.2 19.5 9.38  71
2026 08 07 19  23 04 32.644   -02 05 53.15  .00879 1.0216 148.3 19.6 10.0  71
2026 08 07 20  23 07 46.778   -01 47 16.57  .00886 1.0215 147.5 19.6 10.6  71
2026 08 07 21  23 10 57.946   -01 28 55.45  .00892 1.0215 146.7 19.6 11.2  71
2026 08 07 22  23 14 06.143   -01 10 50.17  .00899 1.0215 145.9 19.7 11.9  71
2026 08 07 23  23 17 11.369   -00 53 01.03  .00906 1.0215 145.1 19.7 12.5  71
2026 08 08 00  23 20 13.630   -00 35 28.31  .00914 1.0215 144.4 19.8 13.1  71
2026 08 08 01  23 23 12.932   -00 18 12.22  .00921 1.0215 143.6 19.8 13.8  71
2026 08 08 02  23 26 09.289   -00 01 12.95  .00929 1.0214 142.9 19.8 14.4  71
2026 08 08 03  23 29 02.716   +00 15 29.38  .00937 1.0214 142.1 19.9 15.0  71
2026 08 08 04  23 31 53.231   +00 31 54.67  .00945 1.0214 141.4 19.9 15.6  71
2026 08 08 05  23 34 40.856   +00 48 02.86  .00953 1.0214 140.7 20.0 16.2  71
2026 08 08 06  23 37 25.615   +01 03 53.94  .00961 1.0214 140.0 20.0 16.8  71
2026 08 08 07  23 40 07.536   +01 19 27.91  .00970 1.0214 139.3 20.0 17.5  71
2026 08 08 08  23 42 46.647   +01 34 44.82  .00978 1.0214 138.7 20.1 18.1  71
2026 08 08 09  23 45 22.979   +01 49 44.73  .00987 1.0213 138.0 20.1 18.6  71
2026 08 08 10  23 47 56.565   +02 04 27.73  .00996 1.0213 137.4 20.1 19.2  71
2026 08 08 11  23 50 27.440   +02 18 53.95  .01005 1.0213 136.7 20.2 19.8  71
2026 08 08 12  23 52 55.638   +02 33 03.52  .01014 1.0213 136.1 20.2 20.4  71
2026 08 08 13  23 55 21.198   +02 46 56.61  .01023 1.0213 135.5 20.3 20.9  71
2026 08 08 14  23 57 44.157   +03 00 33.37  .01033 1.0213 134.9 20.3 21.5  71
2026 08 08 15  00 00 04.553   +03 13 54.01  .01042 1.0213 134.3 20.3 22.0  71
2026 08 08 16  00 02 22.428   +03 26 58.72  .01052 1.0212 133.8 20.4 22.6  71
2026 08 08 17  00 04 37.821   +03 39 47.72  .01062 1.0212 133.2 20.4 23.1  71
2026 08 08 18  00 06 50.772   +03 52 21.23  .01072 1.0212 132.7 20.4 23.6  71
2026 08 08 19  00 09 01.323   +04 04 39.50  .01082 1.0212 132.1 20.5 24.1  71
2026 08 08 20  00 11 09.516   +04 16 42.75  .01092 1.0212 131.6 20.5 24.6  71
2026 08 08 21  00 13 15.391   +04 28 31.24  .01102 1.0212 131.1 20.5 25.1  71
2026 08 08 22  00 15 18.990   +04 40 05.23  .01113 1.0212 130.6 20.6 25.6  71